This demonstration page uses our WeatherBlox Daily Observations layout. Learn more.

Left ArrowRight Arrow

Hourly Observations for April 28, 2020

Temp ( °F °C ) Dew Point ( °F °C ) Humidity (%) Winds ( mph kmh ) Pressure ( in mb ) Visibility ( mi km ) Precip ( " mm )
12:54 am 00:54 Clear 63 17.2 53 11.7 70 70 S 12 19 29.77 1008 10 16.0934 0 0
1:54 am 01:54 Clear 62 16.7 54 12.2 75 75 S 12 19 29.76 1008 10 16.0934 0 0
2:54 am 02:54 Clear 60 15.6 53 11.7 78 78 S 10 17 29.74 1007 10 16.0934 0 0
3:54 am 03:54 Clear 60 15.6 53 11.7 78 78 SSW 7 11 29.74 1007 10 16.0934 0 0
4:54 am 04:54 Clear 59 15 53 11.7 81 81 S 14 22 29.71 1006 10 16.0934 0 0
5:54 am 05:54 Clear 60 15.6 53 11.7 78 78 SW 8 13 29.74 1007 10 16.0934 0 0
6:54 am 06:54 Sunny 59 15 53 11.7 81 81 S 5 7 29.73 1007 10 16.0934 0 0
7:54 am 07:54 Sunny 60 15.6 53 11.7 78 78 S 5 7 29.73 1007 10 16.0934 0 0
8:54 am 08:54 Mostly Cloudy 63 17.2 54 12.2 73 73 WNW 8 13 29.75 1008 10 16.0934 0 0
9:54 am 09:54 Sunny 68 20 50 10 53 53 WNW 13 20 29.75 1008 10 16.0934 0 0
10:54 am 10:54 Sunny 70 21.1 46 7.8 42 42 NNW 13 20 29.76 1008 10 16.0934 0 0
11:54 am 11:54 Sunny 73 22.8 43 6.1 34 34 NW 15 24 29.76 1008 10 16.0934 0 0
12:54 pm 12:54 Sunny 73 22.8 41 5 32 32 NNW 16 26 29.77 1008 10 16.0934 0 0
1:54 pm 13:54 Sunny 76 24.4 41 5 29 29 NNW 18 30 29.78 1008 10 16.0934 0 0
2:54 pm 14:54 Sunny 76 24.4 41 5 29 29 NNW 23 37 29.79 1009 10 16.0934 0 0
3:54 pm 15:54 Partly Cloudy 73 22.8 42 5.6 33 33 N 22 35 29.8 1009 10 16.0934 0 0
4:54 pm 16:54 Mostly Cloudy 75 23.9 42 5.6 31 31 N 31 50 29.8 1009 10 16.0934 0 0
5:54 pm 17:54 Sunny 69 20.6 43 6.1 39 39 NNW 30 48 29.83 1010 10 16.0934 0 0
6:54 pm 18:54 Cloudy with Light Rain 57 13.9 46 7.8 67 67 NW 16 26 29.9 1013 9 14.48406 0.001 0.001
7:54 pm 19:54 Partly Cloudy 56 13.3 47 8.3 72 72 NW 10 17 29.86 1011 10 16.0934 0.001 0.001
8:54 pm 20:54 Clear 55 12.8 45 7.2 69 69 W 6 9 29.9 1012 10 16.0934 0 0
9:54 pm 21:54 Cloudy 54 12.2 44 6.7 69 69 NNW 7 11 29.91 1013 10 16.0934 0 0
10:54 pm 22:54 Mostly Cloudy 55 12.8 43 6.1 64 64 W 5 7 29.88 1012 10 16.0934 0 0
11:54 pm 23:54 Clear 53 11.7 40 4.4 61 61 NW 15 24 29.87 1011 10 16.0934 0 0

Powered by AerisWeather